Time,TemperatureF,DewpointF,PressureIn,WindDirection,WindDirectionDegrees,WindSpeedMPH,WindSpeedGustMPH,Humidity,HourlyPrecipIn,Conditions,Clouds,dailyrainin,SoftwareType,DateUTC
2013-06-07 00:11:00,68.0,67.0,29.91,NW,320,0.0,0.0,95,0.00,,,0.00,weatherlink.com 1.10,2013-06-07 05:11:00,
2013-06-07 00:26:00,67.9,67.0,29.91,NW,320,0.0,0.0,95,0.00,,,0.00,weatherlink.com 1.10,2013-06-07 05:26:00,
2013-06-07 00:41:00,67.8,66.0,29.91,NW,320,0.0,0.0,95,0.00,,,0.00,weatherlink.com 1.10,2013-06-07 05:41:00,
2013-06-07 00:56:00,67.7,67.0,29.90,NW,320,0.0,0.0,96,0.00,,,0.00,weatherlink.com 1.10,2013-06-07 05:56:00,
2013-06-07 01:11:00,67.4,66.0,29.90,NW,320,0.0,0.0,96,0.00,,,0.00,weatherlink.com 1.10,2013-06-07 06:11:00,
2013-06-07 01:27:00,67.0,66.0,29.90,NW,320,0.0,0.0,95,0.00,,,0.00,weatherlink.com 1.10,2013-06-07 06:27:00,
2013-06-07 01:41:00,66.8,66.0,29.89,NW,320,0.0,0.0,96,0.00,,,0.00,weatherlink.com 1.10,2013-06-07 06:41:00,
2013-06-07 01:56:00,66.5,65.0,29.90,NW,320,0.0,0.0,95,0.00,,,0.00,weatherlink.com 1.10,2013-06-07 06:56:00,
2013-06-07 02:11:00,66.5,65.0,29.90,NW,320,0.0,0.0,96,0.00,,,0.00,weatherlink.com 1.10,2013-06-07 07:11:00,
2013-06-07 02:26:00,66.8,66.0,29.90,NW,320,0.0,0.0,96,0.00,,,0.00,weatherlink.com 1.10,2013-06-07 07:26:00,
2013-06-07 02:41:00,67.0,66.0,29.90,NW,320,0.0,0.0,96,0.00,,,0.00,weatherlink.com 1.10,2013-06-07 07:41:00,
2013-06-07 02:56:00,67.2,66.0,29.90,NW,320,0.0,0.0,96,0.00,,,0.00,weatherlink.com 1.10,2013-06-07 07:56:00,
2013-06-07 03:12:00,66.9,66.0,29.89,NW,320,0.0,0.0,96,0.00,,,0.00,weatherlink.com 1.10,2013-06-07 08:12:00,
2013-06-07 03:27:00,66.6,66.0,29.89,NW,320,0.0,0.0,96,0.00,,,0.00,weatherlink.com 1.10,2013-06-07 08:27:00,
2013-06-07 03:42:00,66.3,65.0,29.89,NW,320,0.0,0.0,96,0.00,,,0.00,weatherlink.com 1.10,2013-06-07 08:42:00,
2013-06-07 03:57:00,66.1,65.0,29.90,NW,320,0.0,0.0,96,0.00,,,0.00,weatherlink.com 1.10,2013-06-07 08:57:00,
2013-06-07 04:12:00,66.1,65.0,29.90,NW,320,0.0,0.0,96,0.00,,,0.00,weatherlink.com 1.10,2013-06-07 09:12:00,
2013-06-07 04:27:00,66.6,66.0,29.90,NW,320,0.0,0.0,96,0.00,,,0.00,weatherlink.com 1.10,2013-06-07 09:27:00,
2013-06-07 04:42:00,66.9,66.0,29.90,NW,320,0.0,0.0,96,0.00,,,0.00,weatherlink.com 1.10,2013-06-07 09:42:00,
2013-06-07 04:57:00,67.0,66.0,29.90,NW,320,0.0,1.0,96,0.00,,,0.00,weatherlink.com 1.10,2013-06-07 09:57:00,
2013-06-07 05:12:00,66.9,66.0,29.90,NW,320,0.0,3.0,96,0.00,,,0.00,weatherlink.com 1.10,2013-06-07 10:12:00,
2013-06-07 05:27:00,67.0,66.0,29.90,NW,320,0.0,0.0,96,0.00,,,0.00,weatherlink.com 1.10,2013-06-07 10:27:00,
2013-06-07 05:42:00,67.0,66.0,29.90,NW,320,0.0,1.0,96,0.00,,,0.00,weatherlink.com 1.10,2013-06-07 10:42:00,
2013-06-07 05:57:00,66.9,66.0,29.90,NW,320,0.0,4.0,96,0.00,,,0.00,weatherlink.com 1.10,2013-06-07 10:57:00,
2013-06-07 06:12:00,66.9,66.0,29.91,NW,320,0.0,2.0,96,0.00,,,0.00,weatherlink.com 1.10,2013-06-07 11:12:00,
2013-06-07 06:27:00,67.0,66.0,29.91,NW,320,0.0,1.0,96,0.00,,,0.00,weatherlink.com 1.10,2013-06-07 11:27:00,
2013-06-07 06:42:00,67.1,66.0,29.92,NW,320,0.0,0.0,96,0.00,,,0.00,weatherlink.com 1.10,2013-06-07 11:42:00,
2013-06-07 06:57:00,67.2,66.0,29.92,NW,320,0.0,2.0,96,0.00,,,0.00,weatherlink.com 1.10,2013-06-07 11:57:00,
2013-06-07 07:12:00,67.3,66.0,29.92,NW,320,0.0,1.0,96,0.00,,,0.00,weatherlink.com 1.10,2013-06-07 12:12:00,
2013-06-07 07:27:00,67.4,66.0,29.92,NW,320,0.0,2.0,96,0.00,,,0.00,weatherlink.com 1.10,2013-06-07 12:27:00,
2013-06-07 07:42:00,67.4,66.0,29.92,NW,320,0.0,2.0,96,0.00,,,0.00,weatherlink.com 1.10,2013-06-07 12:42:00,
2013-06-07 07:57:00,67.4,66.0,29.93,NW,320,0.0,1.0,96,0.00,,,0.00,weatherlink.com 1.10,2013-06-07 12:57:00,
2013-06-07 08:12:00,67.7,67.0,29.94,NW,320,0.0,1.0,96,0.00,,,0.00,weatherlink.com 1.10,2013-06-07 13:12:00,
2013-06-07 08:27:00,68.4,67.0,29.94,NW,320,0.0,1.0,96,0.00,,,0.00,weatherlink.com 1.10,2013-06-07 13:27:00,
2013-06-07 08:42:00,68.9,68.0,29.95,NW,321,0.0,3.0,96,0.00,,,0.00,weatherlink.com 1.10,2013-06-07 13:42:00,
2013-06-07 08:57:00,70.2,68.0,29.95,NW,321,0.0,1.0,93,0.00,,,0.00,weatherlink.com 1.10,2013-06-07 13:57:00,
2013-06-07 09:12:00,71.1,68.0,29.95,NW,321,0.0,1.0,89,0.00,,,0.00,weatherlink.com 1.10,2013-06-07 14:12:00,
2013-06-07 09:27:00,72.8,68.0,29.95,NW,321,2.0,4.0,84,0.00,,,0.00,weatherlink.com 1.10,2013-06-07 14:27:00,
2013-06-07 09:42:00,73.6,68.0,29.95,NNW,329,0.0,5.0,82,0.00,,,0.00,weatherlink.com 1.10,2013-06-07 14:42:00,
2013-06-07 09:57:00,73.7,68.0,29.95,NNW,329,0.0,1.0,83,0.00,,,0.00,weatherlink.com 1.10,2013-06-07 14:57:00,
2013-06-07 10:12:00,74.2,68.0,29.95,North,5,0.0,3.0,82,0.00,,,0.00,weatherlink.com 1.10,2013-06-07 15:12:00,
2013-06-07 10:27:00,75.5,68.0,29.95,NNW,331,1.0,4.0,78,0.00,,,0.00,weatherlink.com 1.10,2013-06-07 15:27:00,
2013-06-07 10:42:00,76.0,68.0,29.96,NNW,331,0.0,4.0,77,0.00,,,0.00,weatherlink.com 1.10,2013-06-07 15:42:00,
2013-06-07 10:58:00,77.1,69.0,29.96,NW,316,0.0,3.0,75,0.00,,,0.00,weatherlink.com 1.10,2013-06-07 15:58:00,
2013-06-07 11:13:00,77.2,69.0,29.96,ENE,69,0.0,3.0,75,0.00,,,0.00,weatherlink.com 1.10,2013-06-07 16:13:00,
2013-06-07 11:28:00,78.2,70.0,29.96,WSW,253,0.0,3.0,76,0.00,,,0.00,weatherlink.com 1.10,2013-06-07 16:28:00,
2013-06-07 11:43:00,78.2,68.0,29.96,NNW,331,0.0,3.0,72,0.00,,,0.00,weatherlink.com 1.10,2013-06-07 16:43:00,
2013-06-07 11:58:00,80.0,69.0,29.95,South,171,0.0,4.0,70,0.00,,,0.00,weatherlink.com 1.10,2013-06-07 16:58:00,
2013-06-07 12:13:00,79.5,68.0,29.95,NW,319,1.0,5.0,67,0.00,,,0.00,weatherlink.com 1.10,2013-06-07 17:13:00,
2013-06-07 12:28:00,80.7,67.0,29.94,WNW,282,1.0,3.0,63,0.00,,,0.00,weatherlink.com 1.10,2013-06-07 17:28:00,
2013-06-07 12:43:00,79.8,69.0,29.94,South,169,2.0,6.0,70,0.00,,,0.00,weatherlink.com 1.10,2013-06-07 17:43:00,
2013-06-07 12:58:00,80.0,65.0,29.93,ENE,77,3.0,5.0,61,0.00,,,0.00,weatherlink.com 1.10,2013-06-07 17:58:00,
2013-06-07 13:13:00,80.6,68.0,29.93,NNE,14,0.0,3.0,65,0.00,,,0.00,weatherlink.com 1.10,2013-06-07 18:13:00,
2013-06-07 13:28:00,81.5,67.0,29.93,NW,318,0.0,3.0,61,0.00,,,0.00,weatherlink.com 1.10,2013-06-07 18:28:00,
2013-06-07 13:43:00,82.6,67.0,29.93,WNW,287,1.0,5.0,60,0.00,,,0.00,weatherlink.com 1.10,2013-06-07 18:43:00,
2013-06-07 13:58:00,82.5,67.0,29.92,NNW,346,3.0,4.0,60,0.00,,,0.00,weatherlink.com 1.10,2013-06-07 18:58:00,
2013-06-07 14:13:00,83.4,66.0,29.92,SSE,167,1.0,4.0,55,0.00,,,0.00,weatherlink.com 1.10,2013-06-07 19:13:00,
2013-06-07 14:43:00,82.0,64.0,29.91,SW,232,0.0,4.0,55,0.00,,,0.00,weatherlink.com 1.10,2013-06-07 19:43:00,
2013-06-07 14:58:00,84.0,64.0,29.91,ESE,103,3.0,3.0,52,0.00,,,0.00,weatherlink.com 1.10,2013-06-07 19:58:00,
2013-06-07 15:13:00,84.8,62.0,29.91,South,175,1.0,7.0,46,0.00,,,0.00,weatherlink.com 1.10,2013-06-07 20:13:00,
2013-06-07 15:28:00,84.2,62.0,29.91,SSW,205,3.0,3.0,47,0.00,,,0.00,weatherlink.com 1.10,2013-06-07 20:28:00,
2013-06-07 15:43:00,83.9,62.0,29.91,South,185,0.0,3.0,47,0.00,,,0.00,weatherlink.com 1.10,2013-06-07 20:43:00,
2013-06-07 15:58:00,84.2,63.0,29.91,South,191,0.0,3.0,49,0.00,,,0.00,weatherlink.com 1.10,2013-06-07 20:58:00,
2013-06-07 16:13:00,83.1,62.0,29.91,NNW,328,1.0,5.0,49,0.00,,,0.00,weatherlink.com 1.10,2013-06-07 21:13:00,
2013-06-07 16:28:00,82.6,65.0,29.90,North,355,0.0,3.0,55,0.00,,,0.00,weatherlink.com 1.10,2013-06-07 21:28:00,
2013-06-07 16:43:00,82.7,61.0,29.90,West,276,1.0,6.0,48,0.00,,,0.00,weatherlink.com 1.10,2013-06-07 21:43:00,
2013-06-07 16:58:00,83.2,64.0,29.90,West,274,2.0,4.0,53,0.00,,,0.00,weatherlink.com 1.10,2013-06-07 21:58:00,
2013-06-07 17:13:00,82.8,64.0,29.90,North,355,0.0,1.0,53,0.00,,,0.00,weatherlink.com 1.10,2013-06-07 22:13:00,
2013-06-07 17:28:00,81.8,61.0,29.90,ENE,67,0.0,5.0,50,0.00,,,0.00,weatherlink.com 1.10,2013-06-07 22:28:00,
2013-06-07 17:43:00,80.7,64.0,29.89,North,355,0.0,2.0,58,0.00,,,0.00,weatherlink.com 1.10,2013-06-07 22:43:00,
2013-06-07 17:58:00,79.8,64.0,29.89,North,355,0.0,1.0,58,0.00,,,0.00,weatherlink.com 1.10,2013-06-07 22:58:00,
2013-06-07 18:13:00,79.3,65.0,29.89,North,355,0.0,2.0,61,0.00,,,0.00,weatherlink.com 1.10,2013-06-07 23:13:00,
2013-06-07 18:43:00,78.1,68.0,29.88,North,355,0.0,1.0,71,0.00,,,0.00,weatherlink.com 1.10,2013-06-07 23:43:00,
2013-06-07 18:58:00,77.1,68.0,29.88,North,355,0.0,0.0,74,0.00,,,0.00,weatherlink.com 1.10,2013-06-07 23:58:00,
2013-06-07 19:13:00,76.2,69.0,29.88,North,355,0.0,0.0,77,0.00,,,0.00,weatherlink.com 1.10,2013-06-08 00:13:00,
2013-06-07 19:28:00,75.1,67.0,29.88,North,355,0.0,0.0,77,0.00,,,0.00,weatherlink.com 1.10,2013-06-08 00:28:00,
2013-06-07 20:13:00,73.4,67.0,29.89,North,355,0.0,0.0,80,0.00,,,0.00,weatherlink.com 1.10,2013-06-08 01:13:00,
2013-06-07 20:28:00,72.4,66.0,29.89,North,355,0.0,0.0,81,0.00,,,0.00,weatherlink.com 1.10,2013-06-08 01:28:00,
2013-06-07 20:43:00,71.2,66.0,29.89,North,355,0.0,0.0,82,0.00,,,0.00,weatherlink.com 1.10,2013-06-08 01:43:00,
2013-06-07 20:58:00,70.2,64.0,29.89,North,355,0.0,0.0,81,0.00,,,0.00,weatherlink.com 1.10,2013-06-08 01:58:00,
2013-06-07 21:13:00,69.8,65.0,29.90,North,355,0.0,0.0,84,0.00,,,0.00,weatherlink.com 1.10,2013-06-08 02:13:00,
2013-06-07 21:28:00,69.2,65.0,29.91,North,355,0.0,0.0,85,0.00,,,0.00,weatherlink.com 1.10,2013-06-08 02:28:00,
2013-06-07 21:43:00,69.0,65.0,29.91,North,355,0.0,0.0,88,0.00,,,0.00,weatherlink.com 1.10,2013-06-08 02:43:00,
2013-06-07 22:28:00,67.7,65.0,29.92,North,355,0.0,0.0,90,0.00,,,0.00,weatherlink.com 1.10,2013-06-08 03:28:00,
2013-06-07 22:58:00,66.9,64.0,29.93,North,355,0.0,0.0,91,0.00,,,0.00,weatherlink.com 1.10,2013-06-08 03:58:00,
2013-06-07 23:13:00,66.8,65.0,29.93,North,355,0.0,0.0,92,0.00,,,0.00,weatherlink.com 1.10,2013-06-08 04:13:00,
2013-06-07 23:28:00,66.5,64.0,29.93,North,355,0.0,0.0,92,0.00,,,0.00,weatherlink.com 1.10,2013-06-08 04:28:00,
2013-06-07 23:43:00,66.5,65.0,29.93,North,355,0.0,0.0,93,0.00,,,0.00,weatherlink.com 1.10,2013-06-08 04:43:00,
2013-06-07 23:58:00,66.5,65.0,29.93,North,355,0.0,0.0,93,0.00,,,0.00,weatherlink.com 1.10,2013-06-08 04:58:00,